Location: Catstown
(52.4386°N, 7.2633°W)
Time: 11:28:44
(UTC+00:00)

Okean 1-7 Rocket - Pass Details

Date: 18 September 2020
Orbit: 616 x 649 km, 82.5° (Epoch: 23 October)

Event Time Altitude Azimuth Distance (km) Brightness Sun altitude
Rises 20:39:58 0° 354° (N) 2,981 7.6 -18.9°
Reaches altitude 10° 20:42:25 10° 5° (N) 2,067 6.5 -19.2°
Maximum altitude 20:46:35 33° 69° (ENE) 1,097 4.5 -19.7°
Enters shadow 20:46:41 33° 72° (ENE) 1,098 4.5 -19.8°
